{"data":{"norad_id":68504,"epoch":"2026-09-20T03:39:48.540960Z","epoch_age_seconds":96423,"freshness":"FRESH","line1":"1 68504U 26067CS  26263.15264515  .00001893  00000+0  16235-3 0  9992","line2":"2 68504  97.7705 220.8273 0002750  51.9518 308.1952 14.98716201 25933","mean_motion":14.98716201,"eccentricity":0.000275,"inclination_deg":97.7705,"raan_deg":220.8273,"arg_perigee_deg":51.9518,"mean_anomaly_deg":308.1952,"bstar":0.00016235,"rev_number":2593,"period_min":96.082233516871,"perigee_km":568.95087799534,"apogee_km":572.77282736432,"semimajor_km":6948.9988526798,"source":"CELESTRAK","updated_at":"2026-09-20T09:00:24.262822Z"}}